OBJECT K (44348 NORAD) Tracking and Keplerian Element Data

This shows tracking and keplerian element data for the satellite.

Feedback or suggestion? Click here.




ElementValue
Catalog44348
NameOBJECT K
Epoch Orbit1707
Epoch Day290.11971449
Epoch Year2019
RAAN180.4372
Inclination28.5181
Eccentricity0.0385081
Argument of Perigee229.8964
Mean Anonmoly126.7264
Mean Motion14.98065189
Decay Rate7.296E-05
L11 44348U 19036K 19290.11971449 .00007296 00000-0 10998-3 0 9993
L22 44348 28.5181 180.4372 0385081 229.8964 126.7264 14.98065189 17074

Live tracking and technical data element details for OBJECT K (NORAD 44348). OBJECT K can be tracked NOW for your location showing map with azimuth and elevation plus other details from your city location.

Track the satellite on the map from your city or location and see movement details for azimuth, elevation, latitude, longitude, range, height, and movement on the map or in text.







IsCatalogInMostPopularTable: catalog: 44348, numindb: 14
Update: records affected: 1



GetName: 44348 OBJECT K

Hit Count: updated at: Wed, 23 Oct 2019 01:00:28 GMT